User: anonymous   Login
Location: Unspecified
(0.0000°N, 0.0000°E)
Time: 02:58:16
(UTC+00:00)
Language:

NOSS 2-3 (C) - Orbit

View from above orbital plane
View from above orbital plane
View from above satellite
View from above satellite

Ground track
Ground track

The orbit data is extracted from the following two-line orbital elements,

1 23908U 96029C   17229.87190377 0.00000020  00000-0  11913-4 0    05
2 23908  63.3823 255.1480 0610000  12.7361 347.2639 13.40856950    06
Epoch (UTC): 17 August 2017 20:55:32
Eccentricity: 0.0610000
inclination: 63.3823°
perigee height: 649 km
apogee height: 1562 km
right ascension of ascending node: 255.1480°
argument of perigee: 12.7361°
revolutions per day: 13.40856950
mean anomaly at epoch: 347.2639°
orbit number at epoch: 0

The dashed part of the orbit path shows where the satellite is in the earth's shadow,  

DLR